Fitchburg, MA

6:54 AM EDT on May 28, 2018 (GMT -0400)
Fitchburg Municipal

Weather History for KFIT - November, 2013

Change the Weather History Date:

Saturday, November 2, 2013

  Actual Average (WUND) Record (WUND)
Temperature  
Mean Temperature 52 °F -  
Max Temperature 66 °F - - (-1)
Min Temperature 37 °F - - (-1)
Degree Days  
Heating Degree Days 14    
Growing Degree Days 2 (Base 50)    
Moisture  
Dew Point 41 °F    
Average Humidity 72    
Maximum Humidity 100    
Minimum Humidity 34    
Precipitation  
Precipitation 0.00 in - - ()
Sea Level Pressure  
Sea Level Pressure 29.67 in    
Wind  
Wind Speed 3 mph (NW)    
Max Wind Speed 12 mph    
Max Gust Speed -    
Visibility 9 miles    
Events      
Averages and records for this station are not official NWS values.
T = Trace of Precipitation, MM = Missing Value Source: NWS Daily Summary

Daily Weather History Graph

Daily Weather History Graph

Search for Another Location

Airport or City:

Astronomy

Nov. 02, 2013 Rise Set
Actual Time 7:22 AM EDT 5:38 PM EDT
Civil Twilight 6:52 AM EDT 6:07 PM EDT
Nautical Twilight 6:19 AM EDT 6:41 PM EDT
Astronomical Twilight 5:46 AM EDT 7:13 PM EDT
Moon 6:15 AM EDT (11/2) 5:08 PM EDT (11/2)
Length of Visible Light 11h 14m
Length of Day
10h 16m
Waning Crescent, 1% of the Moon is Illuminated
Nov 2
Waning Crescent
Nov 3
New
Nov 10
First Quarter
Nov 17
Full
Nov 25
Last Quarter

Hourly Weather History & Observations

Time (EDT) Temp. Windchill Dew Point Humidity Pressure Visibility Wind Dir Wind Speed Gust Speed Precip Events Conditions
12:52 AM 54.0 °F - 44.1 °F 69% 29.67 in 10.0 mi NW 6.9 mph - N/A   Clear
1:52 AM 46.0 °F - 42.1 °F 86% 29.66 in 10.0 mi Calm Calm - N/A   Clear
2:52 AM 45.0 °F - 42.1 °F 90% 29.67 in 10.0 mi Calm Calm - N/A   Clear
3:29 AM 42.1 °F - 39.0 °F 89% 29.67 in 2.0 mi Calm Calm - N/A   Clear
3:38 AM 43.0 °F - 39.9 °F 89% 29.67 in 9.0 mi Calm Calm - N/A   Clear
3:52 AM 42.1 °F 40.2 °F 39.0 °F 89% 29.67 in 6.0 mi WNW 3.5 mph - N/A   Clear
4:50 AM 39.2 °F 37.0 °F 39.2 °F 100% 29.68 in 2.0 mi NNW 3.5 mph - N/A   Clear
4:52 AM 41.0 °F 39.0 °F 39.0 °F 93% 29.68 in 2.0 mi NNW 3.5 mph - N/A   Clear
5:00 AM 42.1 °F - 39.9 °F 92% 29.68 in 7.0 mi Calm Calm - N/A   Clear
5:52 AM 39.9 °F - 39.0 °F 97% 29.70 in 9.0 mi Calm Calm - N/A   Clear
6:52 AM 37.9 °F - 37.0 °F 97% 29.69 in 9.0 mi Calm Calm - N/A   Clear
7:52 AM 39.9 °F - 37.9 °F 93% 29.70 in 7.0 mi Calm Calm - N/A   Mostly Cloudy
8:52 AM 48.0 °F - 43.0 °F 83% 29.70 in 10.0 mi Calm Calm - N/A   Partly Cloudy
9:52 AM 55.0 °F - 44.1 °F 67% 29.69 in 10.0 mi Calm Calm - N/A   Overcast
10:52 AM 61.0 °F - 41.0 °F 48% 29.68 in 10.0 mi Calm Calm - N/A   Partly Cloudy
11:52 AM 63.0 °F - 37.9 °F 40% 29.65 in 10.0 mi SSE 4.6 mph - N/A   Clear
12:52 PM 64.9 °F - 37.9 °F 37% 29.64 in 10.0 mi NW 5.8 mph - N/A   Clear
1:52 PM 66.0 °F - 39.0 °F 37% 29.63 in 10.0 mi Variable 4.6 mph - N/A   Clear
2:52 PM 66.0 °F - 39.0 °F 37% 29.61 in 10.0 mi Variable 4.6 mph - N/A   Clear
3:52 PM 66.9 °F - 37.9 °F 34% 29.62 in 10.0 mi WNW 8.1 mph - N/A   Clear
4:52 PM 64.0 °F - 39.0 °F 40% 29.62 in 10.0 mi Variable 5.8 mph - N/A   Scattered Clouds
5:52 PM 59.0 °F - 39.9 °F 49% 29.62 in 10.0 mi Calm Calm - N/A   Mostly Cloudy
6:52 PM 55.0 °F - 43.0 °F 64% 29.65 in 10.0 mi Calm Calm - N/A   Mostly Cloudy
7:52 PM 54.0 °F - 46.0 °F 75% 29.70 in 10.0 mi NW 11.5 mph - 0.00 in   Mostly Cloudy
8:52 PM 51.1 °F - 45.0 °F 80% 29.72 in 10.0 mi West 3.5 mph - N/A   Mostly Cloudy
9:52 PM 51.1 °F - 44.1 °F 77% 29.74 in 10.0 mi WNW 3.5 mph - N/A   Overcast
10:52 PM 50.0 °F - 45.0 °F 83% 29.74 in 10.0 mi NNW 8.1 mph - N/A   Mostly Cloudy
11:52 PM 48.0 °F - 43.0 °F 83% 29.75 in 10.0 mi NW 5.8 mph - N/A   Mostly Cloudy